Regional Weather Roundup
Issued by NWS Upton, NY

Current Version | Previous Version | Graphics & Text | Print | Product List | Glossary Off
Versions: 1 2 3 4 5 6 7 8 9 10 11 12 13 14 15 16 17 18 19 20 21 22 23 24 25 26 27 28 29 30 31 32 33 34 35 36 37 38 39 40 41 42 43 44 45 46 47 48 49 50

021
ASUS41 KOKX 031408
RWROKX

REGIONAL WEATHER ROUNDUP
NATIONAL WEATHER SERVICE NEW YORK NY
900 AM EST SAT DEC 03 2016

NOTE: "FAIR" INDICATES FEW OR NO CLOUDS BELOW 12,000 FEET WITH NO
SIGNIFICANT WEATHER AND/OR OBSTRUCTIONS TO VISIBILITY.

NYZ071-072-176-178-NJZ106-104-031500-
NEW YORK CITY METRO AREA

CITY           SKY/WX    TMP DP  RH WIND       PRES   REMARKS
Central Park   CLOUDY    43  26  51 VRB5      30.05R
Wall St Helipt CLOUDY    45  28  51 VRB3      30.04R
Bronx Bot Gard   N/A     41  27  56 NW9       30.01S
LaGuardia APRT PTSUNNY   44  28  53 NW29G37   30.01S
Kennedy INTL   PTSUNNY   44  25  47 NW24G31   30.03R
Breezy Point     N/A     43 N/A N/A NW23G33     N/A
Newark/Liberty MOSUNNY   43  26  51 NW15G28   30.02R
Teterboro      CLOUDY    43  25  49 NW15G25   30.02R
$$

NYZ177-179-078>081-031500-
LONG ISLAND NEW YORK

CITY           SKY/WX    TMP DP  RH WIND       PRES   REMARKS
Jones Beach      N/A     43 N/A N/A NW22G30     N/A
Matinecock PT  NOT AVBL
Farmingdale    SUNNY     44  26  49 NW18G30   30.00R
MacArthur/ISP  MOSUNNY   44  28  53 NW16G35   29.97R
Shirley        SUNNY     44  29  55 NW20G29   29.97R
Westhampton    MOSUNNY   44  28  53 NW14      29.97S
Southampton      N/A     45  34  65 N12       29.92R
Bridgehampton  NOT AVBL
East Hampton     N/A     43  28  56 W12G26    29.93R
Montauk          N/A     43  29  57 NW20G32   29.93R
$$

NYZ052-065-067-031500-
HUDSON VALLEY

CITY           SKY/WX    TMP DP  RH WIND       PRES   REMARKS
White Plains   PTSUNNY   41  27  57 NW18G26   29.98R
Newburgh       PTSUNNY   39  28  65 NW14G23   30.00R WCI  31
Montgomery     MOSUNNY   42  27  55 NW8G26    29.98R
Poughkeepsie   PTSUNNY   42  27  55 NW6       29.98S
Albany         CLOUDY    38  27  64 W16G22    29.99R WCI  29
$$

NJZ001-105-106-008-010-013-015-019>022-104-031500-
NEW JERSEY

CITY           SKY/WX    TMP DP  RH WIND       PRES   REMARKS
Newark/Liberty MOSUNNY   43  26  51 NW15G28   30.02R
Teterboro      CLOUDY    43  25  49 NW15G25   30.02R
Caldwell       MOSUNNY   43  25  49 NW10G25   30.03R
Somerville     PTSUNNY   44  25  47 NW17G25   30.03S
Linden           N/A    N/A N/A N/A NW18G26   30.03R
Sussex         CLOUDY    41  27  57 VRB7      30.03S
Andover          N/A     39  25  57 N9G25     30.04R WCI  33
Trenton        CLOUDY    44  27  51 NW7G20    30.06R
Millville      CLOUDY    44  33  65 W9        30.13R
Atlantic City  MOSUNNY   46  30  53 NW15      30.10R
Wrightstown    MOSUNNY   44  28  53 NW14G23   30.04R
Toms River     SUNNY     44  28  53 NW17G30   30.06R
Belmar         SUNNY    N/A N/A N/A W17G30    30.03S
$$

PAZ047>061-062-071-031500-
EASTERN PENNSYLVANIA

CITY           SKY/WX    TMP DP  RH WIND       PRES   REMARKS
Philadelphia   PTSUNNY   45  32  60 W15       30.12R
Allentown      CLOUDY    43  28  55 W12       30.08R
Scranton       CLOUDY    38  29  70 NW8       30.07R WCI  32
$$

CTZ002-004>006-009-010-012-RIZ004-006-007-MAZ004-011-015-031500-
SOUTHERN NEW ENGLAND
 IN CT

CITY           SKY/WX    TMP DP  RH WIND       PRES   REMARKS
Bradley INTL   MOSUNNY   41  25  53 NW20G25   29.93R
Hartford       MOSUNNY   41  26  55 NW14      29.95R
Danbury        NOT AVBL
Wtrbury/Oxford MOSUNNY   39  27  60 NW9       29.96R WCI  33
Bridgeport     MOSUNNY   45  28  51 W16       29.96S
Meriden        MOSUNNY   44  26  49 NW16G29   29.95R
New Haven      MOSUNNY   43  28  55 NW13G22   29.96R
Chester          N/A     41  27  56 NW13G21   29.93R
Groton         MOSUNNY   46  29  51 NW13G26   29.92R
Wilimantic     SUNNY     42  27  55 VRB7G24   29.92R

 IN RI

CITY           SKY/WX    TMP DP  RH WIND       PRES   REMARKS
Providence     MOSUNNY   42  25  50 NW15G25   29.88R
Block Island   PTSUNNY   42  28  57 NW20G33   29.90R
Westerly       SUNNY     43  25  49 NW9G22    29.91R
 IN MA

CITY           SKY/WX    TMP DP  RH WIND       PRES   REMARKS
Boston         MOSUNNY   41  27  57 W20G29    29.85R
Worcester      SUNNY     36  24  62 W14G28    29.84R WCI  27
Westfield      MOSUNNY   40  26  57 NW14G21   29.92R WCI  32
Provincetown   MOSUNNY   43  31  62 NW24G36   29.82R
Nantucket      SUNNY     43  28  55 NW22G31   29.83R
$$

ANZ330-335-338-340-345-350-353-355-031500-
COASTAL MARINE OBSERVATIONS


STATION/POSITION TIME  SKY/WX   TEMP    WIND        PRES    VSBY  WAVE
                                AIR SEA DIR/SP/G                  HT/PER
                 (UTC)          (F)     (DEG/KT/KT) (MB)    (MI)  (FT/S)
NY HARB ENTRANCE 1250            45 54  310/ 25/ 31 1015.2          4/ 5
20 S FIRE ISLAND 1250            45 54  320/ 29/ 35 1014.3          7/ 6
GREAT SOUTH BAY  1330            43 44                N/A
23 SSW MONTAUK P 1250            45 56  300/ 25/ 33 1012.6          6/ 7
15 E BARNEGAT LI 1330               54                N/A           5/ 5
HUDSON CANYON    1250            48 58              1014.1         11/ 7
KINGS POINT      1336            43 48              1016.3
EXECUTION ROCKS  1345            44     310/ 19/ 27   N/A
CENTRAL LI SOUND 1330            44 51  300/ 16/ 19   N/A           3/ 4
EASTERN LI SOUND NOT AVBL
ROBBINS REEF     1336            43     320/ 20/ 26 1016.4
$$


>>>>>>>>>>>>>>>>>>>>>>>>>>>> KEY <<<<<<<<<<<<<<<<<<<<<<<<<<<
>                                                          <
>     SKY/WX - Sky Condition/Present Weather               <
>     TMP    - Temperature in Fahrenheit                   <
>     DP     - Dew Point in Fahrenheit                     <
>     RH     - Relative Humidity in Percent                <
>     WIND   - Direction (from) and Speed in MPH           <
>     PRES   - Mean Sea Level Pressure (inches of Hg)      <
>     WCI    - Wind Chill Index                            <
>     VSB    - VISIBILITY IN MILES                         <
>     HX     - HEAT INDEX                                  <
>     TC     - TEMPERATURE IN CELSIUS                      <
>     VRB    - VARIABLE WIND DIRECTION                     <
>                                                          <
>>>>>>>>>>>>>>>>>>>>>>>>>>>> KEY <<<<<<<<<<<<<<<<<<<<<<<<<<<




USA.gov is the U.S. government's official web portal to all federal, state and local government web resources and services.